Starlink 32413

operational
NORAD ID: 61590 Int'l Des: 2024-187 Owner: SPXS Country: US Constellation: starlink
LEOCIRCULAR

Starlink 32413について

説明を読み込み中...

リアルタイム位置

3D地球を読み込み中...

次回通過

高度履歴

Altitude vs Time

uPlot chart will show altitude changes over time

軌道要素

1 61590U 24187S 25306.22475499 .00000974 00000-0 45020-4 0 9996
2 61590 53.1611 297.4084 0001434 86.2670 273.8494 15.30188970 59569
Epoch: Nov 2, 2025 • Age: 28 hours

現在のステータス

高度 477.0 km
速度 7.63 km/s
衛星直下点 -4.99°S, 101.57°E
打ち上げ日 Oct 18, 2024
運用期間 1 years
タイプ internet

技術仕様

分類 Payload
質量 730.00 kg
乾燥質量 700.00 kg
総質量 730.00 kg
長さ 0.30 m
直径 4.10 m
スパン 29.00 m
形状 Box + pan
製造者 SPXS
バスタイプ Starlink V2M
フェーズステータス In Orbit
所有者/国 SPXS/US

大規模コンステレーション

Loading constellations...